User: anonymous   Login
Location: Boiro
(42.6475°N, 8.8834°W)
Time: 00:21:55
(UTC+02:00)
Language:

CUBESAT XI-V - Orbit

View from above orbital plane
View from above orbital plane
View from above satellite
View from above satellite

Ground track
Ground track

The orbit data is extracted from the following two-line orbital elements,

1 28895U 05043F   24114.90052463  .00005410  00000-0  96425-3 0  9994
2 28895  98.1931 250.6888 0016331 165.2558 194.9126 14.67352641986495
Epoch (UTC): 23 April 2024 21:36:45
Eccentricity: 0.0016331
inclination: 98.1931°
perigee height: 658 km
apogee height: 681 km
right ascension of ascending node: 250.6888°
argument of perigee: 165.2558°
revolutions per day: 14.67352641
mean anomaly at epoch: 194.9126°
orbit number at epoch: 98649

The dashed part of the orbit path shows where the satellite is in the earth's shadow,  

DLR